1999 XO135 

Epoch 1999 Dec. 8.0 TT = JDT 2451520.5                  Nakano

M 338.05103              (2000.0)            P               Q

n   0.17636972     Peri.  253.81686     -0.79267262     -0.51086153

a   3.1491018      Node   254.35392     +0.60122391     -0.74545762

e   0.5056680      Incl.   20.21258     -0.10099469     -0.42815117

P   5.59           H   16.0           G   0.15           U   *

Residuals in seconds of arc 

991208 704  0.3-  0.0     991214 704  0.6-  1.3-    991215 704  0.1+  0.6+  

991208 704  0.2-  0.1+    991214 704  0.4+  0.2+    991215 704  0.4+  0.1-  

991208 704  0.6-  0.2-    991214 704  0.5-  0.2+    991227 402  0.1+  0.6-  

991208 704  0.4+  0.2+    991214 704  0.1+  0.4-    991227 402  0.0   0.5+  

991208 704  0.3-  0.4-    991215 704  0.3-  0.4+    991227 402  0.1-  0.1+  

991208 704  0.9+  0.6+    991215 704  0.5-  0.1+                            

991214 704  0.4+  0.2-    991215 704  0.6+  0.4+                            

 

NAKANO

         **** Don't distribute anyone except personal use only ****

                (C) Copyright 1999 OAA/ComputingSection

write mail from CFAD0::NAKANO on 1999-12-28 20:49:27(JST).

 





–ß‚è‚Ü‚·B